Location: Palomar Observatory
(33.3560°N, 116.8630°W)
Time: 09:41:46
(UTC-07:00)

Iridium 57 - Visible Passes

Search period start: 23 May 2017 00:00
Search period end: 02 June 2017 00:00
Orbit: 776 x 779 km, 86.4° (Epoch: 22 May)

Date Brightness Start Highest point End Pass type
(mag) Time Alt. Az. Time Alt. Az. Time Alt. Az.
23 May 6.8 04:04:46 10° SSE 04:09:36 40° E 04:14:27 10° NNE visible
24 May 7.8 03:32:25 10° SE 03:36:15 21° E 03:40:05 10° NE visible
24 May 6.2 05:11:57 10° SSW 05:16:39 34° W 05:21:23 10° NNW visible
25 May 8.5 03:02:14 10° E 03:03:00 10° ENE 03:03:47 10° ENE visible
25 May 5.5 04:37:50 10° S 04:43:00 68° W 04:48:12 10° N visible
26 May 6.0 04:04:22 10° SSE 04:09:28 61° E 04:14:37 10° N visible
27 May 7.2 03:31:32 10° SE 03:36:03 31° E 03:40:35 10° NNE visible
27 May 6.7 05:12:37 10° SW 05:16:43 23° W 05:20:50 10° NNW visible
28 May 8.1 02:59:38 10° ESE 03:02:44 16° E 03:05:50 10° NE visible
28 May 5.9 04:38:18 11° SSW 04:42:59 45° W 04:47:58 10° NNW visible
29 May 5.5 04:05:13 16° S 04:09:23 89° W 04:14:37 10° N visible
30 May 6.4 03:32:07 17° SSE 03:35:53 46° E 03:40:51 10° NNE visible
31 May 7.5 02:58:58 12° SE 03:02:30 24° E 03:06:37 10° NNE visible
31 May 6.4 04:39:27 15° SW 04:43:00 30° W 04:47:34 10° NNW visible
01 Jun 8.1 02:27:19 10° E 02:29:15 12° E 02:31:11 10° ENE visible
01 Jun 5.6 04:06:18 24° SSW 04:09:20 59° W 04:14:29 10° N visible
